This is the latest recevied weather packets stored in our database for station/object G1OCN-WX. If no packets are shown the sender has not sent any weather packets the latest 1 day(s).
| Time | Temp. | Humidity | Pressure | Rain* | Wind** | Luminosity | Snow |
|---|---|---|---|---|---|---|---|
| 1777993150 | 15.56° C | 57% | 1012.5 hPa | 0 mm | 5.36 m/s, 38° | - | - |
| 1777993090 | 15.56° C | 57% | 1012.5 hPa | 0 mm | 5.36 m/s, 36° | - | - |
| 1777993030 | 15.56° C | 57% | 1012.5 hPa | 0 mm | 5.36 m/s, 28° | - | - |
| 1777992970 | 15.56° C | 57% | 1012.5 hPa | 0 mm | 4.47 m/s, 27° | - | - |
| 1777992910 | 15.56° C | 57% | 1012.5 hPa | 0 mm | 4.47 m/s, 16° | - | - |
| 1777992850 | 15.56° C | 57% | 1012.5 hPa | 0 mm | 4.47 m/s, 29° | - | - |
| 1777992790 | 15.56° C | 56% | 1012.5 hPa | 0 mm | 5.81 m/s, 37° | - | - |
| 1777992730 | 15.56° C | 56% | 1012.5 hPa | 0 mm | 5.81 m/s, 37° | - | - |
| 1777992670 | 15.56° C | 56% | 1012.5 hPa | 0 mm | 6.26 m/s, 33° | - | - |
| 1777992610 | 15.56° C | 55% | 1012.6 hPa | 0 mm | 6.26 m/s, 27° | - | - |
| 1777992550 | 15.56° C | 56% | 1012.6 hPa | 0 mm | 5.81 m/s, 21° | - | - |
| 1777992490 | 15.56° C | 56% | 1012.6 hPa | 0 mm | 5.36 m/s, 27° | - | - |
| 1777992430 | 15.56° C | 56% | 1012.6 hPa | 0 mm | 5.81 m/s, 25° | - | - |
| 1777992370 | 15.56° C | 55% | 1012.5 hPa | 0 mm | 6.26 m/s, 22° | - | - |
| 1777992309 | 16.11° C | 56% | 1012.5 hPa | 0 mm | 4.47 m/s, 29° | - | - |
| 1777992249 | 16.11° C | 57% | 1012.5 hPa | 0 mm | 4.47 m/s, 25° | - | - |
| 1777992189 | 16.11° C | 55% | 1012.5 hPa | 0 mm | 4.47 m/s, 28° | - | - |
| 1777992129 | 16.11° C | 55% | 1012.5 hPa | 0 mm | 5.36 m/s, 32° | - | - |
| 1777992069 | 16.11° C | 54% | 1012.4 hPa | 0 mm | 5.81 m/s, 30° | - | - |
| 1777992009 | 16.11° C | 55% | 1012.5 hPa | 0 mm | 5.81 m/s, 21° | - | - |
| 1777991949 | 15.56° C | 56% | 1012.4 hPa | 0 mm | 4.47 m/s, 37° | - | - |
| 1777991889 | 15.56° C | 56% | 1012.4 hPa | 0 mm | 4.02 m/s, 28° | - | - |
| 1777991829 | 15.56° C | 55% | 1012.5 hPa | 0 mm | 4.47 m/s, 34° | - | - |
| 1777991769 | 15.56° C | 56% | 1012.5 hPa | 0 mm | 4.02 m/s, 31° | - | - |
| 1777991709 | 15.56° C | 55% | 1012.6 hPa | 0 mm | 4.47 m/s, 38° | - | - |
* Rain latest hour (hover to see other rain measurements)
** Current wind speed in m/s (hover to see current wind gust speed)